�������l�o���
Date,Time,MP-1(��Sv/h),MP-2(��Sv/h),MP-3(��Sv/h),MP-4(��Sv/h),MP-5(��Sv/h),MP-6(��Sv/h),MP-7(��Sv/h),MP-8(��Sv/h),����,����(m/s),���J
2023/02/15,00:00,0.546,0.789,0.496,1.010,0.697,0.316,0.574,0.546,�k�k��,3.4,��
2023/02/15,00:10,0.546,0.789,0.497,1.011,0.695,0.315,0.573,0.546,�k�k��,3.6,��
2023/02/15,00:20,0.545,0.788,0.497,1.009,0.696,0.316,0.572,0.546,�k�k��,3.4,��
2023/02/15,00:30,0.545,0.790,0.498,1.010,0.696,0.316,0.572,0.546,�k�k��,4.2,��
2023/02/15,00:40,0.546,0.788,0.498,1.011,0.698,0.316,0.573,0.548,�k�k��,3.0,��
2023/02/15,00:50,0.548,0.790,0.498,1.009,0.697,0.316,0.574,0.545,�k�k��,2.6,��
2023/02/15,01:00,0.547,0.789,0.498,1.011,0.696,0.316,0.572,0.547,�k�k��,2.9,��
2023/02/15,01:10,0.545,0.789,0.497,1.009,0.697,0.315,0.573,0.546,�k�k��,2.6,��
2023/02/15,01:20,0.547,0.789,0.498,1.009,0.696,0.316,0.572,0.547,�k,1.8,��
2023/02/15,01:30,0.545,0.787,0.498,1.008,0.697,0.316,0.573,0.546,�k�k��,1.5,��
2023/02/15,01:40,0.544,0.788,0.497,1.009,0.696,0.317,0.574,0.544,���k��,0.8,��
2023/02/15,01:50,0.545,0.788,0.496,1.008,0.696,0.316,0.572,0.546,���k��,1.2,��
2023/02/15,02:00,0.545,0.789,0.496,1.008,0.697,0.315,0.574,0.545,�k��,1.2,��
2023/02/15,02:10,0.546,0.786,0.497,1.010,0.698,0.315,0.572,0.546,���k��,1.5,��
2023/02/15,02:20,0.546,0.788,0.499,1.011,0.696,0.315,0.573,0.545,���k��,2.9,��
2023/02/15,02:30,0.543,0.787,0.498,1.007,0.697,0.316,0.572,0.546,���k��,2.5,��
2023/02/15,02:40,0.547,0.788,0.499,1.008,0.695,0.316,0.573,0.546,��,2.3,��
2023/02/15,02:50,0.546,0.787,0.497,1.009,0.697,0.316,0.573,0.545,���k��,3.9,��
2023/02/15,03:00,0.546,0.786,0.497,1.008,0.697,0.316,0.571,0.545,���k��,4.0,��
2023/02/15,03:10,0.545,0.787,0.497,1.009,0.695,0.316,0.573,0.545,�k��,3.6,��
2023/02/15,03:20,0.544,0.786,0.496,1.009,0.695,0.315,0.571,0.545,�k��,3.5,��
2023/02/15,03:30,0.544,0.786,0.496,1.010,0.695,0.315,0.574,0.546,�k��,3.5,��
2023/02/15,03:40,0.546,0.787,0.496,1.009,0.694,0.315,0.573,0.546,�k��,2.6,��
2023/02/15,03:50,0.546,0.786,0.496,1.009,0.696,0.316,0.572,0.546,��,2.0,��
2023/02/15,04:00,0.544,0.788,0.496,1.011,0.694,0.315,0.572,0.546,���쐼,4.5,��
2023/02/15,04:10,0.547,0.786,0.497,1.010,0.695,0.314,0.573,0.545,��,6.0,��
2023/02/15,04:20,0.546,0.785,0.497,1.006,0.694,0.315,0.571,0.546,��,3.7,��
2023/02/15,04:30,0.544,0.785,0.497,1.007,0.695,0.315,0.572,0.546,��,3.8,��
2023/02/15,04:40,0.545,0.786,0.496,1.007,0.692,0.315,0.573,0.545,��,2.9,��
2023/02/15,04:50,0.545,0.784,0.496,1.009,0.694,0.314,0.570,0.545,�쐼,0.9,��
2023/02/15,05:00,0.545,0.785,0.494,1.010,0.693,0.314,0.573,0.545,��쓌,1.7,��
2023/02/15,05:10,0.545,0.784,0.496,1.008,0.694,0.316,0.572,0.547,��,1.2,��
2023/02/15,05:20,0.543,0.785,0.496,1.009,0.691,0.314,0.573,0.547,��쐼,1.8,��
2023/02/15,05:30,0.545,0.789,0.495,1.011,0.692,0.315,0.571,0.547,�쐼,2.5,��
2023/02/15,05:40,0.545,0.785,0.496,1.008,0.694,0.315,0.572,0.546,���쐼,2.2,��
2023/02/15,05:50,0.542,0.786,0.498,1.008,0.695,0.316,0.572,0.546,-,CALM,��
2023/02/15,06:00,0.545,0.787,0.496,1.008,0.694,0.315,0.572,0.545,�k�k��,1.9,��
2023/02/15,06:10,0.544,0.787,0.497,1.010,0.693,0.315,0.573,0.544,��,1.5,��
2023/02/15,06:20,0.544,0.785,0.496,1.008,0.695,0.315,0.573,0.545,���쐼,3.0,��
2023/02/15,06:30,0.545,0.785,0.496,1.007,0.693,0.315,0.571,0.545,���쐼,1.9,��
2023/02/15,06:40,0.543,0.787,0.496,1.008,0.693,0.315,0.572,0.547,���쐼,3.1,��
2023/02/15,06:50,0.546,0.785,0.496,1.007,0.696,0.316,0.573,0.546,���쐼,1.7,��
2023/02/15,07:00,0.546,0.785,0.496,1.009,0.694,0.314,0.573,0.547,���쐼,1.5,��
2023/02/15,07:10,0.543,0.785,0.497,1.008,0.694,0.314,0.573,0.546,��쐼,0.8,��
2023/02/15,07:20,0.545,0.787,0.496,1.008,0.695,0.315,0.572,0.545,��,1.8,��
2023/02/15,07:30,0.544,0.786,0.497,1.008,0.692,0.315,0.573,0.545,�k�k��,1.9,��
2023/02/15,07:40,0.545,0.786,0.496,1.010,0.694,0.314,0.572,0.546,���쓌,2.0,��
2023/02/15,07:50,0.544,0.787,0.496,1.006,0.694,0.315,0.572,0.545,�k,0.9,��
2023/02/15,08:00,0.544,0.785,0.496,1.009,0.695,0.316,0.573,0.547,�k�k��,2.6,��
2023/02/15,08:10,0.544,0.785,0.497,1.008,0.693,0.315,0.572,0.546,���k��,4.3,��
2023/02/15,08:20,0.547,0.785,0.498,1.008,0.693,0.312,0.572,0.547,�k�k��,3.1,��
2023/02/15,08:30,0.546,0.784,0.498,1.007,0.694,0.315,0.573,0.547,�k,3.4,��
2023/02/15,08:40,0.544,0.783,0.496,1.009,0.693,0.315,0.572,0.546,�k��,2.5,��
2023/02/15,08:50,0.545,0.784,0.496,1.011,0.694,0.315,0.572,0.546,���k��,3.1,��
2023/02/15,09:00,0.545,0.782,0.497,1.012,0.695,0.315,0.574,0.546,���k��,4.4,��
2023/02/15,09:10,0.548,0.782,0.496,1.008,0.694,0.314,0.574,0.545,��,4.6,��
2023/02/15,09:20,0.546,0.785,0.497,1.009,0.695,0.316,0.574,0.546,��,3.9,��
2023/02/15,09:30,0.546,0.786,0.498,1.008,0.695,0.315,0.573,0.546,��,3.7,��
2023/02/15,09:40,0.547,0.784,0.496,1.009,0.697,0.314,0.571,0.547,��,4.0,��
2023/02/15,09:50,0.547,0.788,0.497,1.009,0.695,0.314,0.573,0.548,��,4.2,��
2023/02/15,10:00,0.547,0.788,0.499,1.010,0.696,0.315,0.573,0.547,��,3.9,��
2023/02/15,10:10,0.548,0.784,0.499,1.011,0.697,0.314,0.573,0.546,���쐼,4.0,�L
2023/02/15,10:20,0.549,0.787,0.498,1.009,0.699,0.315,0.573,0.546,���쐼,4.4,��
2023/02/15,10:30,0.547,0.785,0.499,1.010,0.699,0.316,0.573,0.547,�k,4.8,��
2023/02/15,10:40,0.547,0.783,0.498,1.010,0.697,0.315,0.575,0.548,�k�k��,2.6,��
2023/02/15,10:50,0.548,0.788,0.500,1.010,0.699,0.316,0.574,0.546,���k��,3.5,��
2023/02/15,11:00,0.548,0.777,0.500,1.009,0.700,0.315,0.574,0.548,��,2.0,��
2023/02/15,11:10,0.548,0.776,0.501,1.012,0.698,0.316,0.574,0.548,���k��,4.3,��
2023/02/15,11:20,0.548,0.779,0.502,1.011,0.698,0.317,0.574,0.547,�k��,5.3,��
2023/02/15,11:30,0.548,0.777,0.500,1.010,0.699,0.317,0.572,0.547,�k��,5.4,��
2023/02/15,11:40,0.549,0.779,0.501,1.010,0.700,0.317,0.572,0.547,�k��,4.9,��
2023/02/15,11:50,0.549,0.787,0.500,1.011,0.702,0.317,0.571,0.547,�k��,8.0,��
2023/02/15,12:00,0.549,0.790,0.502,1.012,0.701,0.316,0.572,0.547,�k�k��,7.1,��
2023/02/15,12:10,0.551,0.789,0.500,1.012,0.702,0.317,0.572,0.547,���k��,7.0,��
2023/02/15,12:20,0.551,0.789,0.502,1.014,0.702,0.317,0.574,0.549,�k��,5.4,��
2023/02/15,12:30,0.551,0.792,0.501,1.013,0.702,0.315,0.574,0.549,���k��,9.1,��
2023/02/15,12:40,0.552,0.791,0.504,1.012,0.700,0.317,0.574,0.548,���k��,9.4,��
2023/02/15,12:50,0.551,0.794,0.500,1.012,0.700,0.318,0.574,0.548,�k��,8.1,��
2023/02/15,13:00,0.550,0.792,0.500,1.012,0.702,0.317,0.573,0.548,�k�k��,7.7,��
2023/02/15,13:10,0.550,0.791,0.502,1.013,0.703,0.317,0.573,0.547,�k�k��,9.2,�L
2023/02/15,13:20,0.551,0.789,0.501,1.014,0.702,0.318,0.572,0.548,�k,7.6,�L
2023/02/15,13:30,0.551,0.791,0.501,1.014,0.703,0.318,0.572,0.549,�k,6.9,��
2023/02/15,13:40,0.552,0.792,0.502,1.015,0.702,0.318,0.573,0.548,�k,5.6,��
2023/02/15,13:50,0.553,0.793,0.502,1.017,0.703,0.316,0.572,0.549,�k�k��,6.6,��
2023/02/15,14:00,0.553,0.792,0.503,1.015,0.702,0.318,0.574,0.550,�k��,8.5,��
2023/02/15,14:10,0.552,0.792,0.502,1.015,0.706,0.318,0.574,0.549,�k��,7.6,��
2023/02/15,14:20,0.551,0.794,0.502,1.014,0.704,0.317,0.573,0.548,���k��,7.2,��
2023/02/15,14:30,0.551,0.795,0.502,1.015,0.704,0.317,0.574,0.548,���k��,10.7,��
2023/02/15,14:40,0.552,0.791,0.501,1.014,0.705,0.318,0.573,0.549,��,7.2,��
2023/02/15,14:50,0.552,0.792,0.502,1.016,0.704,0.317,0.575,0.549,��,7.9,��
2023/02/15,15:00,0.551,0.793,0.501,1.014,0.703,0.317,0.575,0.549,��,6.0,��
2023/02/15,15:10,0.551,0.795,0.501,1.012,0.704,0.316,0.576,0.549,���k��,5.7,��
2023/02/15,15:20,0.550,0.795,0.502,1.016,0.703,0.318,0.576,0.549,�k�k��,6.4,��
2023/02/15,15:30,0.551,0.796,0.501,1.015,0.703,0.318,0.575,0.549,�k��,7.1,��
2023/02/15,15:40,0.551,0.792,0.500,1.014,0.700,0.317,0.576,0.550,���k��,10.5,��
2023/02/15,15:50,0.551,0.795,0.501,1.015,0.704,0.318,0.575,0.550,�k��,8.3,��
2023/02/15,16:00,0.549,0.794,0.502,1.016,0.705,0.317,0.574,0.549,�k��,9.0,��
2023/02/15,16:10,0.550,0.796,0.500,1.016,0.704,0.317,0.576,0.549,�k��,7.1,��
2023/02/15,16:20,0.550,0.795,0.501,1.017,0.702,0.316,0.575,0.548,�k��,6.5,��
2023/02/15,16:30,0.552,0.794,0.501,1.017,0.703,0.316,0.576,0.548,�k��,7.8,��
2023/02/15,16:40,0.550,0.796,0.499,1.015,0.702,0.314,0.576,0.549,�k��,9.7,��
2023/02/15,16:50,0.549,0.795,0.500,1.013,0.702,0.315,0.575,0.549,�k��,8.0,��
2023/02/15,17:00,0.551,0.796,0.499,1.014,0.704,0.316,0.576,0.549,�k��,7.5,��
2023/02/15,17:10,0.551,0.798,0.499,1.014,0.703,0.316,0.576,0.550,�k��,8.6,��
2023/02/15,17:20,0.548,0.794,0.498,1.013,0.704,0.314,0.574,0.549,�k��,6.9,��
2023/02/15,17:30,0.549,0.795,0.499,1.015,0.703,0.316,0.575,0.548,�k��,6.6,��
2023/02/15,17:40,0.549,0.794,0.497,1.016,0.702,0.316,0.575,0.549,�k��,5.6,��
2023/02/15,17:50,0.548,0.793,0.499,1.015,0.703,0.316,0.573,0.549,�k��,5.2,��
2023/02/15,18:00,0.549,0.794,0.501,1.016,0.705,0.317,0.575,0.549,�k�k��,8.0,��
2023/02/15,18:10,0.548,0.793,0.499,1.014,0.703,0.316,0.575,0.548,�k�k��,6.5,��
2023/02/15,18:20,0.547,0.792,0.500,1.016,0.704,0.316,0.574,0.548,�k�k��,6.7,��
2023/02/15,18:30,0.546,0.795,0.500,1.018,0.703,0.318,0.575,0.549,�k��,5.2,��
2023/02/15,18:40,0.548,0.795,0.499,1.012,0.703,0.318,0.574,0.549,�k�k��,4.9,��
2023/02/15,18:50,0.550,0.793,0.501,1.017,0.702,0.317,0.574,0.549,�k�k��,5.9,��
2023/02/15,19:00,0.549,0.797,0.499,1.014,0.703,0.316,0.574,0.548,�k��,4.6,��
2023/02/15,19:10,0.548,0.796,0.502,1.014,0.704,0.316,0.573,0.548,�k��,5.1,��
2023/02/15,19:20,0.549,0.793,0.500,1.013,0.704,0.318,0.574,0.547,�k��,3.4,��
2023/02/15,19:30,0.549,0.795,0.501,1.015,0.704,0.316,0.573,0.547,�k�k��,4.4,��
2023/02/15,19:40,0.548,0.794,0.500,1.015,0.703,0.316,0.573,0.547,�k�k��,5.2,��
2023/02/15,19:50,0.549,0.795,0.501,1.015,0.702,0.317,0.574,0.547,�k�k��,5.3,��
2023/02/15,20:00,0.548,0.794,0.500,1.015,0.703,0.317,0.574,0.547,�k�k��,5.2,��
2023/02/15,20:10,0.548,0.795,0.500,1.015,0.702,0.317,0.574,0.547,�k�k��,3.6,��
2023/02/15,20:20,0.549,0.795,0.500,1.014,0.703,0.317,0.575,0.547,�k��,3.7,��
2023/02/15,20:30,0.548,0.796,0.499,1.016,0.701,0.315,0.576,0.547,�k��,4.9,��
2023/02/15,20:40,0.547,0.793,0.500,1.015,0.702,0.317,0.574,0.546,�k��,3.7,��
2023/02/15,20:50,0.548,0.793,0.500,1.015,0.704,0.317,0.574,0.548,�k��,3.1,��
2023/02/15,21:00,0.550,0.794,0.500,1.016,0.703,0.317,0.574,0.546,���k��,5.0,��
2023/02/15,21:10,0.547,0.796,0.500,1.016,0.703,0.316,0.574,0.546,���k��,6.1,��
2023/02/15,21:20,0.548,0.794,0.500,1.014,0.704,0.316,0.574,0.547,�k��,7.2,��
2023/02/15,21:30,0.549,0.795,0.500,1.014,0.704,0.317,0.574,0.546,�k��,6.0,��
2023/02/15,21:40,0.549,0.793,0.501,1.014,0.703,0.315,0.573,0.545,�k��,6.7,��
2023/02/15,21:50,0.549,0.795,0.499,1.012,0.704,0.316,0.573,0.548,�k��,4.5,��
2023/02/15,22:00,0.547,0.793,0.500,1.015,0.703,0.316,0.574,0.546,�k��,6.5,��
2023/02/15,22:10,0.547,0.794,0.499,1.014,0.703,0.317,0.573,0.546,�k��,3.7,��
2023/02/15,22:20,0.548,0.795,0.500,1.014,0.704,0.315,0.575,0.547,�k��,4.8,��
2023/02/15,22:30,0.549,0.793,0.500,1.016,0.702,0.316,0.574,0.546,�k��,5.3,��
2023/02/15,22:40,0.548,0.792,0.500,1.014,0.703,0.317,0.574,0.545,�k��,5.8,��
2023/02/15,22:50,0.548,0.795,0.498,1.014,0.704,0.315,0.574,0.547,�k��,5.7,��
2023/02/15,23:00,0.548,0.795,0.499,1.013,0.703,0.316,0.574,0.547,�k��,5.1,��
2023/02/15,23:10,0.549,0.795,0.500,1.015,0.703,0.315,0.573,0.545,�k��,4.7,��
2023/02/15,23:20,0.548,0.794,0.500,1.014,0.702,0.317,0.575,0.548,�k��,3.3,��
2023/02/15,23:30,0.548,0.794,0.500,1.013,0.703,0.316,0.572,0.547,�k��,2.5,��
2023/02/15,23:40,0.546,0.793,0.500,1.015,0.701,0.316,0.572,0.546,���k��,2.3,��
2023/02/15,23:50,0.547,0.792,0.500,1.015,0.702,0.315,0.573,0.546,�k��,3.2,��
